TimeCST,TemperatureF,Dew PointF,Humidity,Sea Level PressureIn,VisibilityMPH,Wind Direction,Wind SpeedMPH,Gust SpeedMPH,PrecipitationIn,Events,Conditions,WindDirDegrees,DateUTC
12:52 AM,23.0,19.9,88,30.38,6.0,Calm,Calm,-,N/A,,Clear,0,2012-11-28 06:52:00
1:52 AM,21.9,19.0,89,30.39,7.0,Calm,Calm,-,N/A,,Clear,0,2012-11-28 07:52:00
2:52 AM,25.0,21.9,88,30.40,8.0,Calm,Calm,-,N/A,,Clear,0,2012-11-28 08:52:00
3:52 AM,21.0,19.0,92,30.40,7.0,Calm,Calm,-,N/A,,Clear,0,2012-11-28 09:52:00
4:52 AM,21.0,19.0,92,30.42,7.0,Calm,Calm,-,N/A,,Clear,0,2012-11-28 10:52:00
5:52 AM,21.9,18.0,85,30.43,8.0,Calm,Calm,-,N/A,,Clear,0,2012-11-28 11:52:00
6:52 AM,21.0,18.0,88,30.44,6.0,Calm,Calm,-,N/A,,Clear,0,2012-11-28 12:52:00
7:52 AM,25.0,23.0,92,30.46,6.0,Calm,Calm,-,N/A,,Clear,0,2012-11-28 13:52:00
8:52 AM,33.1,28.0,82,30.48,8.0,Calm,Calm,-,N/A,,Clear,0,2012-11-28 14:52:00
9:52 AM,39.9,28.0,63,30.48,10.0,Calm,Calm,-,N/A,,Clear,0,2012-11-28 15:52:00
10:52 AM,45.0,26.1,48,30.48,10.0,Calm,Calm,-,N/A,,Clear,0,2012-11-28 16:52:00
11:52 AM,46.0,23.0,40,30.46,10.0,Calm,Calm,-,N/A,,Clear,0,2012-11-28 17:52:00
12:52 PM,46.9,23.0,39,30.44,10.0,WSW,3.5,-,N/A,,Clear,250,2012-11-28 18:52:00
1:52 PM,48.0,24.1,39,30.42,10.0,Calm,Calm,-,N/A,,Clear,0,2012-11-28 19:52:00
2:52 PM,50.0,23.0,35,30.40,10.0,Calm,Calm,-,N/A,,Clear,0,2012-11-28 20:52:00
3:52 PM,48.9,24.1,38,30.40,10.0,Calm,Calm,-,N/A,,Clear,0,2012-11-28 21:52:00
4:52 PM,41.0,27.0,57,30.39,10.0,East,3.5,-,N/A,,Clear,90,2012-11-28 22:52:00
5:52 PM,41.0,24.1,51,30.40,10.0,SSW,3.5,-,N/A,,Clear,200,2012-11-28 23:52:00
6:52 PM,32.0,24.1,73,30.40,10.0,Calm,Calm,-,N/A,,Clear,0,2012-11-29 00:52:00
7:52 PM,30.0,24.1,79,30.39,10.0,SSE,3.5,-,N/A,,Clear,160,2012-11-29 01:52:00
8:52 PM,30.9,25.0,79,30.39,10.0,Calm,Calm,-,N/A,,Clear,0,2012-11-29 02:52:00
9:52 PM,27.0,23.0,85,30.38,10.0,SSE,3.5,-,N/A,,Clear,160,2012-11-29 03:52:00
10:52 PM,26.1,23.0,88,30.38,10.0,SSE,3.5,-,N/A,,Clear,150,2012-11-29 04:52:00
11:52 PM,26.1,21.9,84,30.37,10.0,SE,3.5,-,N/A,,Clear,140,2012-11-29 05:52:00